| time (UTC) | temp F | wind direction | speed knots | gust knots | rain 1hr in | rain 24hr in | rain mn in | humidity % | barometer mb |
| 20260507052416 | 63 | 260 | 3.5 | 0.0 | 0.00 | 0.00 | 0.00 | 83 | 1018.0 |
| 20260507052104 | 63 | 260 | 3.5 | 0.0 | 0.00 | 0.00 | 0.00 | 83 | 1018.0 |
| 20260507051802 | 67 | 260 | 3.5 | 0.0 | 0.00 | 0.00 | 0.00 | 83 | 1018.0 |
| 20260507051455 | 61 | 320 | 5.2 | 3.5 | 0.00 | 0.00 | 0.00 | 81 | 1018.0 |
| 20260507045820 | 61 | 320 | 5.2 | 3.5 | 0.00 | 0.00 | 0.00 | 82 | 1018.0 |
| 20260507045518 | 61 | 320 | 5.2 | 3.5 | 0.00 | 0.00 | 0.00 | 82 | 1018.0 |
| 20260507044850 | 61 | 320 | 5.2 | 3.5 | 0.00 | 0.00 | 0.00 | 82 | 1018.0 |
| 20260507044549 | 61 | 320 | 5.2 | 3.5 | 0.00 | 0.00 | 0.00 | 82 | 1018.0 |
| 20260507044246 | 61 | 320 | 5.2 | 3.5 | 0.00 | 0.00 | 0.00 | 82 | 1018.0 |
| 20260507043943 | 62 | 319 | 5.2 | 3.5 | 0.00 | 0.00 | 0.00 | 81 | 1018.0 |
| 20260507043631 | 61 | 320 | 5.2 | 3.5 | 0.00 | 0.00 | 0.00 | 82 | 1018.0 |
| 20260507043330 | 62 | 319 | 5.2 | 3.5 | 0.00 | 0.00 | 0.00 | 81 | 1018.0 |
| 20260507043023 | 62 | 319 | 5.2 | 3.5 | 0.00 | 0.00 | 0.00 | 81 | 1018.0 |
| 20260507042722 | 62 | 319 | 5.2 | 3.5 | 0.00 | 0.00 | 0.00 | 81 | 1018.0 |
| 20260507042420 | 62 | 319 | 5.2 | 3.5 | 0.00 | 0.00 | 0.00 | 81 | 1018.0 |
| 20260507042109 | 61 | 260 | 2.6 | 0.0 | 0.00 | 0.00 | 0.00 | 83 | 1018.0 |
| 20260507041500 | 62 | 319 | 5.2 | 3.5 | 0.00 | 0.00 | 0.00 | 81 | 1018.0 |
| 20260507041154 | 61 | 260 | 2.6 | 0.0 | 0.00 | 0.00 | 0.00 | 83 | 1018.0 |
| 20260507040847 | 65 | 260 | 2.6 | 0.0 | 0.00 | 0.00 | 0.00 | 83 | 1018.0 |
| 20260507040544 | 65 | 260 | 2.6 | 0.0 | 0.00 | 0.00 | 0.00 | 83 | 1018.0 |
| 20260507040238 | 69 | 260 | 2.6 | 0.0 | 0.00 | 0.00 | 0.00 | 83 | 1018.0 |
| 20260507035926 | 69 | 260 | 2.6 | 0.0 | 0.00 | 0.00 | 0.00 | 83 | 1018.0 |
| 20260507035620 | 69 | 260 | 2.6 | 0.0 | 0.00 | 0.00 | 0.00 | 83 | 1018.0 |
| 20260507035318 | 61 | 260 | 2.6 | 0.0 | 0.00 | 0.00 | 0.00 | 83 | 1018.0 |
| 20260507035012 | 61 | 260 | 2.6 | 0.0 | 0.00 | 0.00 | 0.00 | 83 | 1018.0 |
| 20260507034707 | 61 | 260 | 2.6 | 0.0 | 0.00 | 0.00 | 0.00 | 83 | 1018.0 |
| 20260507034401 | 65 | 260 | 2.6 | 0.0 | 0.00 | 0.00 | 0.00 | 83 | 1018.0 |
| 20260507034058 | 61 | 260 | 2.6 | 0.0 | 0.00 | 0.00 | 0.00 | 83 | 1018.0 |
| 20260507033757 | 65 | 260 | 2.6 | 0.0 | 0.00 | 0.00 | 0.00 | 83 | 1017.0 |
| 20260507033449 | 65 | 260 | 2.6 | 0.0 | 0.00 | 0.00 | 0.00 | 83 | 1018.0 |
| 20260507033143 | 69 | 260 | 2.6 | 0.0 | 0.00 | 0.00 | 0.00 | 83 | 1017.0 |
| 20260507032831 | 65 | 260 | 2.6 | 0.0 | 0.00 | 0.00 | 0.00 | 83 | 1017.0 |
| 20260507032525 | 69 | 260 | 2.6 | 0.0 | 0.00 | 0.00 | 0.00 | 83 | 1017.0 |
| 20260507032218 | 61 | 260 | 2.6 | 0.0 | 0.00 | 0.00 | 0.00 | 83 | 1017.0 |
| 20260507031911 | 69 | 260 | 2.6 | 0.0 | 0.00 | 0.00 | 0.00 | 83 | 1017.0 |
| 20260507031609 | 65 | 260 | 2.6 | 0.0 | 0.00 | 0.00 | 0.00 | 83 | 1017.0 |
| 20260507031303 | 69 | 260 | 2.6 | 0.0 | 0.00 | 0.00 | 0.00 | 83 | 1017.0 |
| 20260507031001 | 63 | 260 | 2.6 | 0.0 | 0.00 | 0.00 | 0.00 | 88 | 1017.0 |
| 20260507030700 | 67 | 0 | 0.0 | 0.0 | 0.00 | 0.00 | 0.00 | 88 | 1018.0 |
| 20260507030359 | 67 | 0 | 0.0 | 0.0 | 0.00 | 0.00 | 0.00 | 88 | 1018.0 |
| 20260507030052 | 63 | 0 | 0.0 | 0.0 | 0.00 | 0.00 | 0.00 | 88 | 1018.0 |
| 20260507025751 | 67 | 0 | 0.0 | 0.0 | 0.00 | 0.00 | 0.00 | 88 | 1018.0 |
| 20260507025444 | 63 | 0 | 0.0 | 0.0 | 0.00 | 0.00 | 0.00 | 88 | 1018.0 |
| 20260507025138 | 67 | 0 | 0.0 | 0.0 | 0.00 | 0.00 | 0.00 | 88 | 1018.0 |
| 20260507024836 | 67 | 0 | 0.0 | 0.0 | 0.00 | 0.00 | 0.00 | 88 | 1018.0 |
| 20260507024535 | 63 | 0 | 0.0 | 0.0 | 0.00 | 0.00 | 0.00 | 88 | 1018.0 |
| 20260507024234 | 67 | 0 | 0.0 | 0.0 | 0.00 | 0.00 | 0.00 | 88 | 1016.0 |
| 20260507023932 | 67 | 0 | 0.0 | 0.0 | 0.00 | 0.00 | 0.00 | 88 | 1016.0 |
| 20260507023631 | 67 | 0 | 0.0 | 0.0 | 0.00 | 0.00 | 0.00 | 88 | 1016.0 |
| 20260507023324 | 67 | 0 | 0.0 | 0.0 | 0.00 | 0.00 | 0.00 | 88 | 1016.0 |
| 20260507023018 | 63 | 0 | 0.0 | 0.0 | 0.00 | 0.00 | 0.00 | 88 | 1016.0 |
| 20260507022715 | 63 | 0 | 0.0 | 0.0 | 0.00 | 0.00 | 0.00 | 88 | 1016.0 |
| 20260507021859 | 67 | 0 | 0.0 | 0.0 | 0.00 | 0.00 | 0.00 | 88 | 1016.0 |
| 20260507021557 | 67 | 0 | 0.0 | 0.0 | 0.00 | 0.00 | 0.00 | 88 | 1016.0 |
| 20260507021254 | 61 | 0 | 0.0 | 0.0 | 0.00 | 0.00 | 0.00 | 78 | 1016.0 |
| 20260507020952 | 65 | 0 | 0.0 | 0.0 | 0.00 | 0.00 | 0.00 | 78 | 1016.0 |
| 20260507020649 | 65 | 0 | 0.0 | 0.0 | 0.00 | 0.00 | 0.00 | 78 | 1016.0 |
| 20260507020346 | 69 | 0 | 0.0 | 0.0 | 0.00 | 0.00 | 0.00 | 78 | 1017.0 |
| 20260507020044 | 69 | 0 | 0.0 | 0.0 | 0.00 | 0.00 | 0.00 | 78 | 1017.0 |
| 20260507015736 | 69 | 0 | 0.0 | 0.0 | 0.00 | 0.00 | 0.00 | 78 | 1017.0 |
| 20260507015432 | 69 | 0 | 0.0 | 0.0 | 0.00 | 0.00 | 0.00 | 78 | 1017.0 |
| 20260507014823 | 61 | 0 | 0.0 | 0.0 | 0.00 | 0.00 | 0.00 | 78 | 1017.0 |
| 20260507014516 | 65 | 0 | 0.0 | 0.0 | 0.00 | 0.00 | 0.00 | 78 | 1017.0 |
| 20260507014215 | 69 | 0 | 0.0 | 0.0 | 0.00 | 0.00 | 0.00 | 78 | 1017.0 |
| 20260507013912 | 61 | 0 | 0.0 | 0.0 | 0.00 | 0.00 | 0.00 | 78 | 1017.0 |
| 20260507013608 | 65 | 0 | 0.0 | 0.0 | 0.00 | 0.00 | 0.00 | 78 | 1015.0 |
| 20260507013306 | 65 | 0 | 0.0 | 0.0 | 0.00 | 0.00 | 0.00 | 78 | 1015.0 |
| 20260507013003 | 65 | 0 | 0.0 | 0.0 | 0.00 | 0.00 | 0.00 | 78 | 1015.0 |
| 20260507012702 | 69 | 0 | 0.0 | 0.0 | 0.00 | 0.00 | 0.00 | 78 | 1015.0 |
| 20260507012401 | 65 | 0 | 0.0 | 0.0 | 0.00 | 0.00 | 0.00 | 78 | 1015.0 |
| 20260507012052 | 65 | 0 | 0.0 | 0.0 | 0.00 | 0.00 | 0.00 | 78 | 1015.0 |
| 20260507011749 | 65 | 0 | 0.0 | 0.0 | 0.00 | 0.00 | 0.00 | 78 | 1015.0 |
| 20260507011447 | 65 | 0 | 0.0 | 0.0 | 0.00 | 0.00 | 0.00 | 78 | 1015.0 |
| 20260507011145 | 69 | 0 | 0.0 | 0.0 | 0.00 | 0.00 | 0.00 | 78 | 1015.0 |
| 20260507010844 | 65 | 0 | 1.7 | 0.0 | 0.00 | 0.00 | 0.00 | 69 | 1016.0 |
| 20260507010542 | 65 | 0 | 1.7 | 0.0 | 0.00 | 0.00 | 0.00 | 69 | 1016.0 |
| 20260507010240 | 73 | 0 | 1.7 | 0.0 | 0.00 | 0.00 | 0.00 | 69 | 1015.0 |
| 20260507005933 | 65 | 0 | 1.7 | 0.0 | 0.00 | 0.00 | 0.00 | 69 | 1016.0 |
| 20260507005632 | 65 | 0 | 1.7 | 0.0 | 0.00 | 0.00 | 0.00 | 69 | 1016.0 |
| 20260507005325 | 69 | 0 | 1.7 | 0.0 | 0.00 | 0.00 | 0.00 | 69 | 1015.0 |
| 20260507005017 | 69 | 0 | 1.7 | 0.0 | 0.00 | 0.00 | 0.00 | 69 | 1015.0 |
| 20260507004715 | 69 | 0 | 1.7 | 0.0 | 0.00 | 0.00 | 0.00 | 69 | 1015.0 |
| 20260507004412 | 73 | 0 | 1.7 | 0.0 | 0.00 | 0.00 | 0.00 | 69 | 1015.0 |
| 20260507004106 | 73 | 0 | 1.7 | 0.0 | 0.00 | 0.00 | 0.00 | 69 | 1015.0 |
| 20260507003805 | 65 | 0 | 1.7 | 0.0 | 0.00 | 0.00 | 0.00 | 69 | 1015.0 |
| 20260507003503 | 65 | 0 | 1.7 | 0.0 | 0.00 | 0.00 | 0.00 | 69 | 1015.0 |
| 20260507003201 | 69 | 0 | 1.7 | 0.0 | 0.00 | 0.00 | 0.00 | 69 | 1014.0 |
| 20260507002854 | 69 | 0 | 1.7 | 0.0 | 0.00 | 0.00 | 0.00 | 69 | 1014.0 |
| 20260507002552 | 69 | 0 | 1.7 | 0.0 | 0.00 | 0.00 | 0.00 | 69 | 1014.0 |
| 20260507002246 | 69 | 0 | 1.7 | 0.0 | 0.00 | 0.00 | 0.00 | 69 | 1014.0 |
| 20260507001942 | 73 | 0 | 1.7 | 0.0 | 0.00 | 0.00 | 0.00 | 69 | 1014.0 |
| 20260507001640 | 69 | 0 | 1.7 | 0.0 | 0.00 | 0.00 | 0.00 | 69 | 1014.0 |
| 20260507001338 | 73 | 0 | 1.7 | 0.0 | 0.00 | 0.00 | 0.00 | 69 | 1014.0 |
| 20260507001037 | 65 | 150 | 3.5 | 0.0 | 0.00 | 0.00 | 0.00 | 69 | 1014.0 |
| 20260507000735 | 65 | 150 | 3.5 | 0.0 | 0.00 | 0.00 | 0.00 | 69 | 1014.0 |
| 20260507000435 | 69 | 150 | 3.5 | 0.0 | 0.00 | 0.00 | 0.00 | 69 | 1014.0 |
| 20260507000132 | 73 | 150 | 3.5 | 0.0 | 0.00 | 0.00 | 0.00 | 69 | 1015.0 |
| 20260506235830 | 73 | 150 | 3.5 | 0.0 | 0.00 | 0.00 | 0.00 | 69 | 1015.0 |
| 20260506235520 | 69 | 150 | 3.5 | 0.0 | 0.00 | 0.00 | 0.00 | 69 | 1015.0 |
| 20260506235214 | 73 | 150 | 3.5 | 0.0 | 0.00 | 0.00 | 0.00 | 69 | 1015.0 |
| 20260506234908 | 65 | 150 | 3.5 | 0.0 | 0.00 | 0.00 | 0.00 | 69 | 1014.0 |
| 20260506234606 | 69 | 150 | 3.5 | 0.0 | 0.00 | 0.00 | 0.00 | 69 | 1014.0 |
| 20260506234305 | 73 | 150 | 3.5 | 0.0 | 0.00 | 0.00 | 0.00 | 69 | 1014.0 |
| 20260506233958 | 65 | 150 | 3.5 | 0.0 | 0.00 | 0.00 | 0.00 | 69 | 1014.0 |
| 20260506233657 | 69 | 150 | 3.5 | 0.0 | 0.00 | 0.00 | 0.00 | 69 | 1014.0 |
| 20260506233355 | 73 | 150 | 3.5 | 0.0 | 0.00 | 0.00 | 0.00 | 69 | 1013.0 |
| 20260506233048 | 73 | 150 | 3.5 | 0.0 | 0.00 | 0.00 | 0.00 | 69 | 1014.0 |
| 20260506232746 | 68 | 160 | 7.0 | 0.0 | 0.00 | 0.00 | 0.00 | 65 | 1013.0 |
| 20260506232445 | 73 | 150 | 3.5 | 0.0 | 0.00 | 0.00 | 0.00 | 69 | 1013.0 |
| 20260506232142 | 68 | 160 | 7.0 | 0.0 | 0.00 | 0.00 | 0.00 | 65 | 1013.0 |
| 20260506231835 | 72 | 160 | 7.0 | 0.0 | 0.00 | 0.00 | 0.00 | 65 | 1013.0 |
| 20260506231533 | 72 | 160 | 7.0 | 0.0 | 0.00 | 0.00 | 0.00 | 65 | 1013.0 |
| 20260506231229 | 72 | 160 | 7.0 | 0.0 | 0.00 | 0.00 | 0.00 | 65 | 1013.0 |
| 20260506230927 | 76 | 160 | 7.0 | 0.0 | 0.00 | 0.00 | 0.00 | 65 | 1013.0 |
| 20260506230314 | 76 | 160 | 7.0 | 0.0 | 0.00 | 0.00 | 0.00 | 65 | 1013.0 |
| 20260506225945 | 76 | 160 | 7.0 | 0.0 | 0.00 | 0.00 | 0.00 | 65 | 1013.0 |
| 20260506225638 | 76 | 160 | 7.0 | 0.0 | 0.00 | 0.00 | 0.00 | 65 | 1013.0 |
| 20260506225334 | 68 | 160 | 7.0 | 0.0 | 0.00 | 0.00 | 0.00 | 65 | 1013.0 |
| 20260506225026 | 76 | 160 | 7.0 | 0.0 | 0.00 | 0.00 | 0.00 | 65 | 1013.0 |
| 20260506224708 | 68 | 160 | 7.0 | 0.0 | 0.00 | 0.00 | 0.00 | 65 | 1013.0 |
| 20260506224402 | 72 | 160 | 7.0 | 0.0 | 0.00 | 0.00 | 0.00 | 65 | 1013.0 |
| 20260506224059 | 72 | 160 | 7.0 | 0.0 | 0.00 | 0.00 | 0.00 | 65 | 1013.0 |
| 20260506223756 | 72 | 160 | 7.0 | 0.0 | 0.00 | 0.00 | 0.00 | 65 | 1013.0 |
| 20260506223446 | 72 | 160 | 7.0 | 0.0 | 0.00 | 0.00 | 0.00 | 65 | 1012.0 |
| 20260506223140 | 76 | 160 | 7.0 | 0.0 | 0.00 | 0.00 | 0.00 | 65 | 1012.0 |
| 20260506222838 | 72 | 160 | 7.0 | 0.0 | 0.00 | 0.00 | 0.00 | 65 | 1012.0 |
| 20260506222534 | 72 | 160 | 7.0 | 0.0 | 0.00 | 0.00 | 0.00 | 65 | 1012.0 |
| 20260506222228 | 76 | 160 | 7.0 | 0.0 | 0.00 | 0.00 | 0.00 | 65 | 1012.0 |
| 20260506221926 | 72 | 160 | 7.0 | 0.0 | 0.00 | 0.00 | 0.00 | 65 | 1012.0 |
| 20260506221623 | 70 | 160 | 7.0 | 0.0 | 0.00 | 0.00 | 0.00 | 61 | 1012.0 |
| 20260506221320 | 76 | 160 | 7.0 | 0.0 | 0.00 | 0.00 | 0.00 | 65 | 1012.0 |
| 20260506221019 | 76 | 160 | 7.0 | 0.0 | 0.00 | 0.00 | 0.00 | 65 | 1012.0 |
| 20260506220717 | 70 | 160 | 7.0 | 0.0 | 0.00 | 0.00 | 0.00 | 61 | 1012.0 |
| 20260506220409 | 74 | 160 | 7.8 | 0.0 | 0.00 | 0.00 | 0.00 | 61 | 1012.0 |
| 20260506220107 | 74 | 160 | 7.8 | 0.0 | 0.00 | 0.00 | 0.00 | 61 | 1012.0 |
| 20260506215804 | 70 | 160 | 7.8 | 0.0 | 0.00 | 0.00 | 0.00 | 61 | 1012.0 |
| 20260506215502 | 74 | 160 | 7.8 | 0.0 | 0.00 | 0.00 | 0.00 | 61 | 1012.0 |
| 20260506215200 | 78 | 160 | 7.8 | 0.0 | 0.00 | 0.00 | 0.00 | 61 | 1012.0 |
| 20260506214853 | 70 | 160 | 7.8 | 0.0 | 0.00 | 0.00 | 0.00 | 61 | 1012.0 |
| 20260506214546 | 70 | 160 | 7.8 | 0.0 | 0.00 | 0.00 | 0.00 | 61 | 1012.0 |
| 20260506214245 | 74 | 160 | 7.8 | 0.0 | 0.00 | 0.00 | 0.00 | 61 | 1012.0 |
| 20260506213939 | 70 | 160 | 7.8 | 0.0 | 0.00 | 0.00 | 0.00 | 61 | 1012.0 |
| 20260506213637 | 74 | 160 | 7.8 | 0.0 | 0.00 | 0.00 | 0.00 | 61 | 1012.0 |
| 20260506213331 | 74 | 160 | 7.8 | 0.0 | 0.00 | 0.00 | 0.00 | 61 | 1012.0 |
| 20260506213023 | 78 | 160 | 7.8 | 0.0 | 0.00 | 0.00 | 0.00 | 61 | 1012.0 |
| 20260506212721 | 70 | 160 | 7.8 | 0.0 | 0.00 | 0.00 | 0.00 | 61 | 1012.0 |
| 20260506212419 | 74 | 160 | 7.8 | 0.0 | 0.00 | 0.00 | 0.00 | 61 | 1012.0 |
| 20260506212113 | 70 | 160 | 7.8 | 0.0 | 0.00 | 0.00 | 0.00 | 61 | 1012.0 |
| 20260506211811 | 74 | 160 | 7.8 | 0.0 | 0.00 | 0.00 | 0.00 | 61 | 1012.0 |
| 20260506211508 | 74 | 160 | 7.8 | 0.0 | 0.00 | 0.00 | 0.00 | 61 | 1012.0 |
| 20260506211200 | 78 | 160 | 7.8 | 0.0 | 0.00 | 0.00 | 0.00 | 61 | 1012.0 |
| 20260506210857 | 78 | 160 | 7.8 | 0.0 | 0.00 | 0.00 | 0.00 | 61 | 1012.0 |
| 20260506210550 | 72 | 150 | 7.8 | 0.0 | 0.00 | 0.00 | 0.00 | 58 | 1013.0 |
| 20260506210248 | 76 | 150 | 7.8 | 0.0 | 0.00 | 0.00 | 0.00 | 58 | 1013.0 |
| 20260506205939 | 72 | 150 | 7.8 | 0.0 | 0.00 | 0.00 | 0.00 | 58 | 1013.0 |
| 20260506205633 | 76 | 150 | 7.8 | 0.0 | 0.00 | 0.00 | 0.00 | 58 | 1013.0 |
| 20260506205330 | 76 | 150 | 7.8 | 0.0 | 0.00 | 0.00 | 0.00 | 58 | 1013.0 |
| 20260506205022 | 80 | 150 | 7.8 | 0.0 | 0.00 | 0.00 | 0.00 | 58 | 1013.0 |
| 20260506204714 | 80 | 150 | 7.8 | 0.0 | 0.00 | 0.00 | 0.00 | 58 | 1013.0 |
| 20260506204413 | 72 | 150 | 7.8 | 0.0 | 0.00 | 0.00 | 0.00 | 58 | 1013.0 |
| 20260506204112 | 72 | 150 | 7.8 | 0.0 | 0.00 | 0.00 | 0.00 | 58 | 1013.0 |
| 20260506203809 | 72 | 150 | 7.8 | 0.0 | 0.00 | 0.00 | 0.00 | 58 | 1013.0 |
| 20260506203507 | 72 | 150 | 7.8 | 0.0 | 0.00 | 0.00 | 0.00 | 58 | 1013.0 |
| 20260506203200 | 76 | 150 | 7.8 | 0.0 | 0.00 | 0.00 | 0.00 | 58 | 1013.0 |
| 20260506202858 | 76 | 150 | 7.8 | 0.0 | 0.00 | 0.00 | 0.00 | 58 | 1013.0 |
| 20260506202556 | 80 | 150 | 7.8 | 0.0 | 0.00 | 0.00 | 0.00 | 58 | 1013.0 |
| 20260506202249 | 80 | 150 | 7.8 | 0.0 | 0.00 | 0.00 | 0.00 | 58 | 1013.0 |
| 20260506201943 | 72 | 150 | 7.8 | 0.0 | 0.00 | 0.00 | 0.00 | 58 | 1013.0 |
| 20260506201635 | 76 | 150 | 7.8 | 0.0 | 0.00 | 0.00 | 0.00 | 58 | 1012.0 |
| 20260506201334 | 76 | 150 | 7.8 | 0.0 | 0.00 | 0.00 | 0.00 | 58 | 1012.0 |
| 20260506201029 | 80 | 150 | 7.8 | 0.0 | 0.00 | 0.00 | 0.00 | 58 | 1012.0 |
| 20260506200718 | 72 | 160 | 7.0 | 0.0 | 0.00 | 0.00 | 0.00 | 58 | 1013.0 |
| 20260506200411 | 80 | 160 | 7.0 | 0.0 | 0.00 | 0.00 | 0.00 | 58 | 1012.0 |
| 20260506200105 | 72 | 160 | 7.0 | 0.0 | 0.00 | 0.00 | 0.00 | 58 | 1013.0 |
| 20260506195758 | 72 | 160 | 7.0 | 0.0 | 0.00 | 0.00 | 0.00 | 58 | 1013.0 |
| 20260506195452 | 76 | 160 | 7.0 | 0.0 | 0.00 | 0.00 | 0.00 | 58 | 1013.0 |
| 20260506195150 | 80 | 160 | 7.0 | 0.0 | 0.00 | 0.00 | 0.00 | 58 | 1013.0 |
| 20260506194845 | 80 | 160 | 7.0 | 0.0 | 0.00 | 0.00 | 0.00 | 58 | 1013.0 |
| 20260506194538 | 72 | 160 | 7.0 | 0.0 | 0.00 | 0.00 | 0.00 | 58 | 1013.0 |
| 20260506194227 | 80 | 160 | 7.0 | 0.0 | 0.00 | 0.00 | 0.00 | 58 | 1013.0 |
| 20260506193926 | 72 | 160 | 7.0 | 0.0 | 0.00 | 0.00 | 0.00 | 58 | 1013.0 |
| 20260506193619 | 76 | 160 | 7.0 | 0.0 | 0.00 | 0.00 | 0.00 | 58 | 1013.0 |
| 20260506193313 | 80 | 160 | 7.0 | 0.0 | 0.00 | 0.00 | 0.00 | 58 | 1013.0 |
| 20260506193006 | 72 | 160 | 7.0 | 0.0 | 0.00 | 0.00 | 0.00 | 58 | 1013.0 |
| 20260506192704 | 76 | 160 | 7.0 | 0.0 | 0.00 | 0.00 | 0.00 | 58 | 1013.0 |
| 20260506192358 | 76 | 160 | 7.0 | 0.0 | 0.00 | 0.00 | 0.00 | 58 | 1013.0 |
| 20260506192052 | 80 | 160 | 7.0 | 0.0 | 0.00 | 0.00 | 0.00 | 58 | 1013.0 |
| 20260506191745 | 80 | 160 | 7.0 | 0.0 | 0.00 | 0.00 | 0.00 | 58 | 1013.0 |
| 20260506191439 | 74 | 160 | 7.0 | 0.0 | 0.00 | 0.00 | 0.00 | 61 | 1013.0 |
| 20260506191132 | 74 | 160 | 7.0 | 0.0 | 0.00 | 0.00 | 0.00 | 61 | 1013.0 |
| 20260506190830 | 78 | 150 | 7.0 | 0.0 | 0.00 | 0.00 | 0.00 | 61 | 1013.0 |
| 20260506190524 | 78 | 150 | 7.0 | 0.0 | 0.00 | 0.00 | 0.00 | 61 | 1013.0 |
| 20260506190217 | 74 | 150 | 7.0 | 0.0 | 0.00 | 0.00 | 0.00 | 61 | 1013.0 |
| 20260506185910 | 74 | 150 | 7.0 | 0.0 | 0.00 | 0.00 | 0.00 | 61 | 1013.0 |
| 20260506185604 | 74 | 150 | 7.0 | 0.0 | 0.00 | 0.00 | 0.00 | 61 | 1013.0 |
| 20260506185256 | 78 | 150 | 7.0 | 0.0 | 0.00 | 0.00 | 0.00 | 61 | 1013.0 |
| 20260506184944 | 74 | 150 | 7.0 | 0.0 | 0.00 | 0.00 | 0.00 | 61 | 1013.0 |
| 20260506184637 | 78 | 150 | 7.0 | 0.0 | 0.00 | 0.00 | 0.00 | 61 | 1013.0 |
| 20260506184325 | 78 | 150 | 7.0 | 0.0 | 0.00 | 0.00 | 0.00 | 61 | 1013.0 |
| 20260506183710 | 74 | 150 | 7.0 | 0.0 | 0.00 | 0.00 | 0.00 | 61 | 1013.0 |
| 20260506183403 | 78 | 150 | 7.0 | 0.0 | 0.00 | 0.00 | 0.00 | 61 | 1013.0 |
| 20260506183102 | 74 | 150 | 7.0 | 0.0 | 0.00 | 0.00 | 0.00 | 61 | 1014.0 |
| 20260506182755 | 74 | 150 | 7.0 | 0.0 | 0.00 | 0.00 | 0.00 | 61 | 1014.0 |
| 20260506182453 | 78 | 150 | 7.0 | 0.0 | 0.00 | 0.00 | 0.00 | 61 | 1014.0 |
| 20260506182152 | 74 | 150 | 7.0 | 0.0 | 0.00 | 0.00 | 0.00 | 61 | 1014.0 |
| 20260506181850 | 78 | 150 | 7.0 | 0.0 | 0.00 | 0.00 | 0.00 | 61 | 1014.0 |
| 20260506181539 | 74 | 150 | 7.0 | 0.0 | 0.00 | 0.00 | 0.00 | 61 | 1014.0 |
| 20260506181232 | 78 | 150 | 7.0 | 0.0 | 0.00 | 0.00 | 0.00 | 61 | 1014.0 |
| 20260506180929 | 72 | 150 | 7.0 | 0.0 | 0.00 | 0.00 | 0.00 | 65 | 1014.0 |
| 20260506180628 | 72 | 150 | 7.0 | 0.0 | 0.00 | 0.00 | 0.00 | 65 | 1014.0 |
| 20260506180318 | 76 | 160 | 5.2 | 0.0 | 0.00 | 0.00 | 0.00 | 65 | 1014.0 |
| 20260506180011 | 72 | 160 | 5.2 | 0.0 | 0.00 | 0.00 | 0.00 | 65 | 1014.0 |
| 20260506175705 | 76 | 160 | 5.2 | 0.0 | 0.00 | 0.00 | 0.00 | 65 | 1014.0 |
| 20260506175353 | 76 | 160 | 5.2 | 0.0 | 0.00 | 0.00 | 0.00 | 65 | 1014.0 |
| 20260506175047 | 72 | 160 | 5.2 | 0.0 | 0.00 | 0.00 | 0.00 | 65 | 1014.0 |
| 20260506174745 | 76 | 160 | 5.2 | 0.0 | 0.00 | 0.00 | 0.00 | 65 | 1014.0 |
| 20260506174432 | 76 | 160 | 5.2 | 0.0 | 0.00 | 0.00 | 0.00 | 65 | 1014.0 |
| 20260506174130 | 76 | 160 | 5.2 | 0.0 | 0.00 | 0.00 | 0.00 | 65 | 1014.0 |
| 20260506173824 | 72 | 160 | 5.2 | 0.0 | 0.00 | 0.00 | 0.00 | 65 | 1014.0 |
| 20260506173521 | 72 | 160 | 5.2 | 0.0 | 0.00 | 0.00 | 0.00 | 65 | 1014.0 |
| 20260506173214 | 72 | 160 | 5.2 | 0.0 | 0.00 | 0.00 | 0.00 | 65 | 1014.0 |
| 20260506172910 | 76 | 160 | 5.2 | 0.0 | 0.00 | 0.00 | 0.00 | 65 | 1016.0 |
| 20260506172604 | 76 | 160 | 5.2 | 0.0 | 0.00 | 0.00 | 0.00 | 65 | 1016.0 |
| 20260506172257 | 76 | 160 | 5.2 | 0.0 | 0.00 | 0.00 | 0.00 | 65 | 1016.0 |
| 20260506171950 | 72 | 160 | 5.2 | 0.0 | 0.00 | 0.00 | 0.00 | 65 | 1016.0 |
| 20260506171644 | 76 | 160 | 5.2 | 0.0 | 0.00 | 0.00 | 0.00 | 65 | 1015.0 |
| 20260506171337 | 76 | 160 | 5.2 | 0.0 | 0.00 | 0.00 | 0.00 | 65 | 1015.0 |
| 20260506171030 | 76 | 160 | 5.2 | 0.0 | 0.00 | 0.00 | 0.00 | 65 | 1015.0 |
| 20260506170723 | 76 | 160 | 5.2 | 0.0 | 0.00 | 0.00 | 0.00 | 65 | 1015.0 |
| 20260506170416 | 72 | 220 | 2.6 | 0.0 | 0.00 | 0.00 | 0.00 | 65 | 1015.0 |
| 20260506170110 | 76 | 220 | 2.6 | 0.0 | 0.00 | 0.00 | 0.00 | 65 | 1015.0 |
| 20260506165804 | 72 | 220 | 2.6 | 0.0 | 0.00 | 0.00 | 0.00 | 65 | 1015.0 |
| 20260506165501 | 72 | 220 | 2.6 | 0.0 | 0.00 | 0.00 | 0.00 | 65 | 1015.0 |
| 20260506165150 | 76 | 220 | 2.6 | 0.0 | 0.00 | 0.00 | 0.00 | 65 | 1015.0 |
| 20260506164846 | 72 | 220 | 2.6 | 0.0 | 0.00 | 0.00 | 0.00 | 65 | 1015.0 |
| 20260506164536 | 72 | 220 | 2.6 | 0.0 | 0.00 | 0.00 | 0.00 | 65 | 1015.0 |
| 20260506164230 | 76 | 220 | 2.6 | 0.0 | 0.00 | 0.00 | 0.00 | 65 | 1015.0 |
| 20260506163924 | 76 | 220 | 2.6 | 0.0 | 0.00 | 0.00 | 0.00 | 65 | 1015.0 |
| 20260506163622 | 76 | 220 | 2.6 | 0.0 | 0.00 | 0.00 | 0.00 | 65 | 1015.0 |
| 20260506163319 | 72 | 220 | 2.6 | 0.0 | 0.00 | 0.00 | 0.00 | 65 | 1015.0 |
| 20260506163018 | 76 | 220 | 2.6 | 0.0 | 0.00 | 0.00 | 0.00 | 65 | 1017.0 |
| 20260506162709 | 76 | 220 | 2.6 | 0.0 | 0.00 | 0.00 | 0.00 | 65 | 1017.0 |
| 20260506162403 | 72 | 220 | 2.6 | 0.0 | 0.00 | 0.00 | 0.00 | 65 | 1016.0 |
| 20260506162051 | 72 | 220 | 2.6 | 0.0 | 0.00 | 0.00 | 0.00 | 65 | 1016.0 |
| 20260506161749 | 76 | 220 | 2.6 | 0.0 | 0.00 | 0.00 | 0.00 | 65 | 1016.0 |
| 20260506161440 | 72 | 220 | 2.6 | 0.0 | 0.00 | 0.00 | 0.00 | 65 | 1016.0 |
| 20260506161135 | 72 | 220 | 2.6 | 0.0 | 0.00 | 0.00 | 0.00 | 65 | 1016.0 |
| 20260506160823 | 76 | 220 | 2.6 | 0.0 | 0.00 | 0.00 | 0.00 | 65 | 1016.0 |
| 20260506160522 | 71 | 160 | 4.3 | 0.0 | 0.00 | 0.00 | 0.00 | 78 | 1016.0 |
| 20260506160215 | 71 | 160 | 4.3 | 0.0 | 0.00 | 0.00 | 0.00 | 78 | 1016.0 |
| 20260506155913 | 71 | 160 | 4.3 | 0.0 | 0.00 | 0.00 | 0.00 | 78 | 1016.0 |
| 20260506155612 | 71 | 160 | 4.3 | 0.0 | 0.00 | 0.00 | 0.00 | 78 | 1016.0 |
| 20260506155310 | 71 | 160 | 4.3 | 0.0 | 0.00 | 0.00 | 0.00 | 78 | 1016.0 |
| 20260506155001 | 71 | 160 | 4.3 | 0.0 | 0.00 | 0.00 | 0.00 | 78 | 1016.0 |
| 20260506154700 | 71 | 160 | 4.3 | 0.0 | 0.00 | 0.00 | 0.00 | 78 | 1016.0 |
| 20260506154350 | 71 | 160 | 4.3 | 0.0 | 0.00 | 0.00 | 0.00 | 78 | 1016.0 |
| 20260506154044 | 71 | 160 | 4.3 | 0.0 | 0.00 | 0.00 | 0.00 | 78 | 1016.0 |
| 20260506153738 | 71 | 160 | 4.3 | 0.0 | 0.00 | 0.00 | 0.00 | 78 | 1016.0 |
| 20260506153435 | 71 | 160 | 4.3 | 0.0 | 0.00 | 0.00 | 0.00 | 78 | 1016.0 |
| 20260506153129 | 71 | 160 | 4.3 | 0.0 | 0.00 | 0.00 | 0.00 | 78 | 1017.0 |
| 20260506152821 | 71 | 160 | 4.3 | 0.0 | 0.00 | 0.00 | 0.00 | 78 | 1017.0 |
| 20260506152515 | 71 | 160 | 4.3 | 0.0 | 0.00 | 0.00 | 0.00 | 78 | 1017.0 |
| 20260506152205 | 71 | 160 | 4.3 | 0.0 | 0.00 | 0.00 | 0.00 | 78 | 1017.0 |
| 20260506151856 | 71 | 160 | 4.3 | 0.0 | 0.00 | 0.00 | 0.00 | 78 | 1017.0 |
| 20260506151555 | 69 | 160 | 4.3 | 0.0 | 0.00 | 0.00 | 0.00 | 69 | 1017.0 |
| 20260506151253 | 69 | 160 | 4.3 | 0.0 | 0.00 | 0.00 | 0.00 | 69 | 1017.0 |
| 20260506150946 | 69 | 160 | 4.3 | 0.0 | 0.00 | 0.00 | 0.00 | 69 | 1017.0 |
| 20260506150640 | 69 | 160 | 4.3 | 0.0 | 0.00 | 0.00 | 0.00 | 69 | 1017.0 |
| 20260506150337 | 73 | 0 | 1.7 | 0.0 | 0.00 | 0.00 | 0.00 | 69 | 1017.0 |
| 20260506150031 | 69 | 0 | 1.7 | 0.0 | 0.00 | 0.00 | 0.00 | 69 | 1017.0 |
| 20260506145719 | 73 | 0 | 1.7 | 0.0 | 0.00 | 0.00 | 0.00 | 69 | 1017.0 |
| 20260506145414 | 73 | 0 | 1.7 | 0.0 | 0.00 | 0.00 | 0.00 | 69 | 1017.0 |
| 20260506145108 | 69 | 0 | 1.7 | 0.0 | 0.00 | 0.00 | 0.00 | 69 | 1017.0 |
| 20260506144807 | 69 | 0 | 1.7 | 0.0 | 0.00 | 0.00 | 0.00 | 69 | 1017.0 |
| 20260506144506 | 73 | 0 | 1.7 | 0.0 | 0.00 | 0.00 | 0.00 | 69 | 1017.0 |
| 20260506144156 | 69 | 0 | 1.7 | 0.0 | 0.00 | 0.00 | 0.00 | 69 | 1017.0 |
| 20260506143852 | 69 | 0 | 1.7 | 0.0 | 0.00 | 0.00 | 0.00 | 69 | 1017.0 |
| 20260506143545 | 73 | 0 | 1.7 | 0.0 | 0.00 | 0.00 | 0.00 | 69 | 1017.0 |
| 20260506143233 | 73 | 0 | 1.7 | 0.0 | 0.00 | 0.00 | 0.00 | 69 | 1017.0 |
| 20260506142932 | 73 | 0 | 1.7 | 0.0 | 0.00 | 0.00 | 0.00 | 69 | 1017.0 |
| 20260506142630 | 69 | 0 | 1.7 | 0.0 | 0.00 | 0.00 | 0.00 | 69 | 1017.0 |
| 20260506142323 | 73 | 0 | 1.7 | 0.0 | 0.00 | 0.00 | 0.00 | 69 | 1017.0 |
| 20260506142017 | 67 | 0 | 1.7 | 0.0 | 0.00 | 0.00 | 0.00 | 78 | 1017.0 |
| 20260506141709 | 67 | 0 | 1.7 | 0.0 | 0.00 | 0.00 | 0.00 | 78 | 1017.0 |
| 20260506141401 | 73 | 0 | 1.7 | 0.0 | 0.00 | 0.00 | 0.00 | 69 | 1017.0 |
| 20260506141054 | 67 | 0 | 1.7 | 0.0 | 0.00 | 0.00 | 0.00 | 78 | 1017.0 |
| 20260506140748 | 67 | 0 | 1.7 | 0.0 | 0.00 | 0.00 | 0.00 | 78 | 1017.0 |
| 20260506140446 | 71 | 0 | 1.7 | 0.0 | 0.00 | 0.00 | 0.00 | 78 | 1017.0 |
| 20260506140144 | 71 | 0 | 1.7 | 0.0 | 0.00 | 0.00 | 0.00 | 78 | 1017.0 |
| 20260506135842 | 67 | 0 | 1.7 | 0.0 | 0.00 | 0.00 | 0.00 | 78 | 1017.0 |
| 20260506135536 | 67 | 0 | 1.7 | 0.0 | 0.00 | 0.00 | 0.00 | 78 | 1017.0 |
| 20260506135229 | 71 | 0 | 1.7 | 0.0 | 0.00 | 0.00 | 0.00 | 78 | 1017.0 |
| 20260506134927 | 71 | 0 | 1.7 | 0.0 | 0.00 | 0.00 | 0.00 | 78 | 1017.0 |
| 20260506134625 | 67 | 0 | 1.7 | 0.0 | 0.00 | 0.00 | 0.00 | 78 | 1017.0 |
| 20260506134324 | 67 | 0 | 1.7 | 0.0 | 0.00 | 0.00 | 0.00 | 78 | 1017.0 |
| 20260506134018 | 67 | 0 | 1.7 | 0.0 | 0.00 | 0.00 | 0.00 | 78 | 1017.0 |
| 20260506133716 | 67 | 0 | 1.7 | 0.0 | 0.00 | 0.00 | 0.00 | 78 | 1017.0 |
| 20260506133407 | 67 | 0 | 1.7 | 0.0 | 0.00 | 0.00 | 0.00 | 78 | 1017.0 |
| 20260506133055 | 71 | 0 | 1.7 | 0.0 | 0.00 | 0.00 | 0.00 | 78 | 1017.0 |
| 20260506132754 | 67 | 0 | 1.7 | 0.0 | 0.00 | 0.00 | 0.00 | 78 | 1017.0 |
| 20260506132446 | 67 | 0 | 1.7 | 0.0 | 0.00 | 0.00 | 0.00 | 78 | 1017.0 |
| 20260506132144 | 71 | 0 | 1.7 | 0.0 | 0.00 | 0.00 | 0.00 | 78 | 1017.0 |
| 20260506131837 | 71 | 0 | 1.7 | 0.0 | 0.00 | 0.00 | 0.00 | 78 | 1017.0 |
| 20260506131535 | 71 | 0 | 1.7 | 0.0 | 0.00 | 0.00 | 0.00 | 78 | 1017.0 |
| 20260506131229 | 67 | 0 | 1.7 | 0.0 | 0.00 | 0.00 | 0.00 | 83 | 1017.0 |
| 20260506130922 | 71 | 0 | 1.7 | 0.0 | 0.00 | 0.00 | 0.00 | 78 | 1017.0 |
| 20260506130620 | 67 | 0 | 1.7 | 0.0 | 0.00 | 0.00 | 0.00 | 83 | 1017.0 |
| 20260506130318 | 67 | 0 | 1.7 | 0.0 | 0.00 | 0.00 | 0.00 | 83 | 1017.0 |
| 20260506130017 | 67 | 0 | 1.7 | 0.0 | 0.00 | 0.00 | 0.00 | 83 | 1017.0 |
| 20260506125707 | 67 | 0 | 1.7 | 0.0 | 0.00 | 0.00 | 0.00 | 83 | 1017.0 |
| 20260506125401 | 67 | 0 | 1.7 | 0.0 | 0.00 | 0.00 | 0.00 | 83 | 1017.0 |
| 20260506125053 | 67 | 0 | 1.7 | 0.0 | 0.00 | 0.00 | 0.00 | 83 | 1017.0 |
| 20260506124450 | 67 | 0 | 1.7 | 0.0 | 0.00 | 0.00 | 0.00 | 83 | 1017.0 |
| 20260506124148 | 67 | 0 | 1.7 | 0.0 | 0.00 | 0.00 | 0.00 | 83 | 1017.0 |
| 20260506123842 | 67 | 0 | 1.7 | 0.0 | 0.00 | 0.00 | 0.00 | 83 | 1017.0 |
| 20260506123536 | 67 | 0 | 1.7 | 0.0 | 0.00 | 0.00 | 0.00 | 83 | 1017.0 |
| 20260506123227 | 67 | 0 | 1.7 | 0.0 | 0.00 | 0.00 | 0.00 | 83 | 1017.0 |
| 20260506122917 | 63 | 0 | 1.7 | 0.0 | 0.00 | 0.00 | 0.00 | 83 | 1017.0 |
| 20260506122606 | 67 | 0 | 1.7 | 0.0 | 0.00 | 0.00 | 0.00 | 83 | 1017.0 |
| 20260506122257 | 63 | 0 | 1.7 | 0.0 | 0.00 | 0.00 | 0.00 | 83 | 1017.0 |
| 20260506121949 | 63 | 0 | 1.7 | 0.0 | 0.00 | 0.00 | 0.00 | 83 | 1017.0 |
| 20260506121645 | 67 | 0 | 1.7 | 0.0 | 0.00 | 0.00 | 0.00 | 83 | 1017.0 |
| 20260506121341 | 65 | 0 | 1.7 | 0.0 | 0.00 | 0.00 | 0.00 | 73 | 1017.0 |
| 20260506121038 | 67 | 0 | 1.7 | 0.0 | 0.00 | 0.00 | 0.00 | 83 | 1017.0 |
| 20260506120731 | 69 | 0 | 1.7 | 0.0 | 0.00 | 0.00 | 0.00 | 73 | 1017.0 |
| 20260506120427 | 65 | 0 | 1.7 | 0.0 | 0.00 | 0.00 | 0.00 | 73 | 1017.0 |
| 20260506120120 | 69 | 0 | 1.7 | 0.0 | 0.00 | 0.00 | 0.00 | 73 | 1017.0 |
| 20260506115816 | 69 | 0 | 1.7 | 0.0 | 0.00 | 0.00 | 0.00 | 73 | 1017.0 |
| 20260506115510 | 65 | 0 | 1.7 | 0.0 | 0.00 | 0.00 | 0.00 | 73 | 1017.0 |
| 20260506115203 | 65 | 0 | 1.7 | 0.0 | 0.00 | 0.00 | 0.00 | 73 | 1017.0 |
| 20260506114901 | 69 | 0 | 1.7 | 0.0 | 0.00 | 0.00 | 0.00 | 73 | 1017.0 |
| 20260506114554 | 69 | 0 | 1.7 | 0.0 | 0.00 | 0.00 | 0.00 | 73 | 1017.0 |
| 20260506114253 | 69 | 0 | 1.7 | 0.0 | 0.00 | 0.00 | 0.00 | 73 | 1017.0 |
| 20260506113946 | 69 | 0 | 1.7 | 0.0 | 0.00 | 0.00 | 0.00 | 73 | 1017.0 |
| 20260506113635 | 65 | 0 | 1.7 | 0.0 | 0.00 | 0.00 | 0.00 | 73 | 1017.0 |
| 20260506113328 | 69 | 0 | 1.7 | 0.0 | 0.00 | 0.00 | 0.00 | 73 | 1017.0 |
| 20260506113027 | 63 | 260 | 3.5 | 0.0 | 0.00 | 0.00 | 0.00 | 78 | 1017.0 |
| 20260506112724 | 63 | 260 | 3.5 | 0.0 | 0.00 | 0.00 | 0.00 | 78 | 1017.0 |
| 20260506112418 | 59 | 260 | 3.5 | 0.0 | 0.00 | 0.00 | 0.00 | 78 | 1017.0 |
| 20260506112110 | 63 | 260 | 3.5 | 0.0 | 0.00 | 0.00 | 0.00 | 78 | 1017.0 |
| 20260506111808 | 63 | 260 | 3.5 | 0.0 | 0.00 | 0.00 | 0.00 | 78 | 1017.0 |
| 20260506111505 | 67 | 260 | 3.5 | 0.0 | 0.00 | 0.00 | 0.00 | 78 | 1017.0 |
| 20260506111202 | 59 | 260 | 3.5 | 0.0 | 0.00 | 0.00 | 0.00 | 78 | 1017.0 |
| 20260506110853 | 63 | 260 | 3.5 | 0.0 | 0.00 | 0.00 | 0.00 | 78 | 1017.0 |
| 20260506110547 | 67 | 260 | 3.5 | 0.0 | 0.00 | 0.00 | 0.00 | 78 | 1017.0 |
| 20260506110240 | 59 | 260 | 3.5 | 0.0 | 0.00 | 0.00 | 0.00 | 78 | 1017.0 |
| 20260506105934 | 59 | 260 | 3.5 | 0.0 | 0.00 | 0.00 | 0.00 | 78 | 1017.0 |
| 20260506105632 | 59 | 260 | 3.5 | 0.0 | 0.00 | 0.00 | 0.00 | 78 | 1017.0 |
| 20260506105330 | 59 | 260 | 3.5 | 0.0 | 0.00 | 0.00 | 0.00 | 78 | 1017.0 |
| 20260506105024 | 63 | 260 | 3.5 | 0.0 | 0.00 | 0.00 | 0.00 | 78 | 1017.0 |
| 20260506104723 | 63 | 260 | 3.5 | 0.0 | 0.00 | 0.00 | 0.00 | 78 | 1017.0 |
| 20260506104416 | 63 | 260 | 3.5 | 0.0 | 0.00 | 0.00 | 0.00 | 78 | 1017.0 |
| 20260506104110 | 63 | 260 | 3.5 | 0.0 | 0.00 | 0.00 | 0.00 | 78 | 1017.0 |
| 20260506103506 | 67 | 260 | 3.5 | 0.0 | 0.00 | 0.00 | 0.00 | 78 | 1016.0 |
| 20260506103203 | 63 | 260 | 3.5 | 0.0 | 0.00 | 0.00 | 0.00 | 78 | 1017.0 |
| 20260506102856 | 67 | 260 | 3.5 | 0.0 | 0.00 | 0.00 | 0.00 | 78 | 1016.0 |
| 20260506102547 | 59 | 260 | 3.5 | 0.0 | 0.00 | 0.00 | 0.00 | 78 | 1016.0 |
| 20260506102244 | 63 | 260 | 3.5 | 0.0 | 0.00 | 0.00 | 0.00 | 78 | 1016.0 |
| 20260506101942 | 59 | 260 | 3.5 | 0.0 | 0.00 | 0.00 | 0.00 | 78 | 1016.0 |
| 20260506101633 | 63 | 260 | 3.5 | 0.0 | 0.00 | 0.00 | 0.00 | 78 | 1016.0 |
| 20260506101327 | 67 | 260 | 3.5 | 0.0 | 0.00 | 0.00 | 0.00 | 78 | 1016.0 |
| 20260506101019 | 61 | 280 | 7.0 | 0.0 | 0.00 | 0.00 | 0.00 | 68 | 1016.0 |
| 20260506100713 | 67 | 260 | 3.5 | 0.0 | 0.00 | 0.00 | 0.00 | 78 | 1016.0 |
| 20260506100405 | 61 | 280 | 7.0 | 0.0 | 0.00 | 0.00 | 0.00 | 68 | 1016.0 |
| 20260506100058 | 65 | 280 | 7.0 | 0.0 | 0.00 | 0.00 | 0.00 | 68 | 1016.0 |
| 20260506095755 | 69 | 280 | 7.0 | 0.0 | 0.00 | 0.00 | 0.00 | 68 | 1016.0 |
| 20260506095448 | 65 | 280 | 7.0 | 0.0 | 0.00 | 0.00 | 0.00 | 68 | 1016.0 |
| 20260506095142 | 69 | 280 | 7.0 | 0.0 | 0.00 | 0.00 | 0.00 | 68 | 1016.0 |
| 20260506094835 | 61 | 280 | 7.0 | 0.0 | 0.00 | 0.00 | 0.00 | 68 | 1016.0 |
| 20260506094529 | 61 | 280 | 7.0 | 0.0 | 0.00 | 0.00 | 0.00 | 68 | 1016.0 |
| 20260506094227 | 61 | 280 | 7.0 | 0.0 | 0.00 | 0.00 | 0.00 | 68 | 1016.0 |
| 20260506093915 | 61 | 280 | 7.0 | 0.0 | 0.00 | 0.00 | 0.00 | 68 | 1016.0 |
| 20260506093609 | 65 | 280 | 7.0 | 0.0 | 0.00 | 0.00 | 0.00 | 68 | 1016.0 |
| 20260506093301 | 61 | 280 | 7.0 | 0.0 | 0.00 | 0.00 | 0.00 | 68 | 1016.0 |
| 20260506092954 | 65 | 280 | 7.0 | 0.0 | 0.00 | 0.00 | 0.00 | 68 | 1016.0 |
| 20260506092643 | 69 | 280 | 7.0 | 0.0 | 0.00 | 0.00 | 0.00 | 68 | 1016.0 |
| 20260506092335 | 69 | 280 | 7.0 | 0.0 | 0.00 | 0.00 | 0.00 | 68 | 1016.0 |
| 20260506092028 | 61 | 280 | 7.0 | 0.0 | 0.00 | 0.00 | 0.00 | 68 | 1016.0 |
| 20260506091722 | 61 | 280 | 7.0 | 0.0 | 0.00 | 0.00 | 0.00 | 68 | 1016.0 |
| 20260506091415 | 65 | 280 | 7.0 | 0.0 | 0.00 | 0.00 | 0.00 | 68 | 1016.0 |
| 20260506091106 | 65 | 280 | 7.0 | 0.0 | 0.00 | 0.00 | 0.00 | 68 | 1016.0 |
| 20260506090800 | 65 | 280 | 4.3 | 0.0 | 0.00 | 0.00 | 0.00 | 68 | 1016.0 |
| 20260506090453 | 65 | 280 | 7.0 | 0.0 | 0.00 | 0.00 | 0.00 | 68 | 1016.0 |
| 20260506090145 | 69 | 280 | 4.3 | 0.0 | 0.00 | 0.00 | 0.00 | 68 | 1016.0 |
| 20260506085836 | 61 | 280 | 4.3 | 0.0 | 0.00 | 0.00 | 0.00 | 68 | 1016.0 |
| 20260506085528 | 61 | 280 | 4.3 | 0.0 | 0.00 | 0.00 | 0.00 | 68 | 1016.0 |
| 20260506085218 | 69 | 280 | 4.3 | 0.0 | 0.00 | 0.00 | 0.00 | 68 | 1016.0 |
| 20260506084912 | 61 | 280 | 4.3 | 0.0 | 0.00 | 0.00 | 0.00 | 68 | 1016.0 |
| 20260506084610 | 65 | 280 | 4.3 | 0.0 | 0.00 | 0.00 | 0.00 | 68 | 1016.0 |
| 20260506084306 | 65 | 280 | 4.3 | 0.0 | 0.00 | 0.00 | 0.00 | 68 | 1016.0 |
| 20260506083957 | 65 | 280 | 4.3 | 0.0 | 0.00 | 0.00 | 0.00 | 68 | 1016.0 |
| 20260506083655 | 69 | 280 | 4.3 | 0.0 | 0.00 | 0.00 | 0.00 | 68 | 1016.0 |
| 20260506083353 | 61 | 280 | 4.3 | 0.0 | 0.00 | 0.00 | 0.00 | 68 | 1016.0 |
| 20260506083052 | 61 | 280 | 4.3 | 0.0 | 0.00 | 0.00 | 0.00 | 68 | 1016.0 |
| 20260506082750 | 65 | 280 | 4.3 | 0.0 | 0.00 | 0.00 | 0.00 | 68 | 1016.0 |
| 20260506082443 | 65 | 280 | 4.3 | 0.0 | 0.00 | 0.00 | 0.00 | 68 | 1016.0 |
| 20260506082140 | 65 | 280 | 4.3 | 0.0 | 0.00 | 0.00 | 0.00 | 68 | 1016.0 |
| 20260506081838 | 69 | 280 | 4.3 | 0.0 | 0.00 | 0.00 | 0.00 | 68 | 1016.0 |
| 20260506081527 | 59 | 280 | 4.3 | 0.0 | 0.00 | 0.00 | 0.00 | 73 | 1016.0 |
| 20260506081220 | 59 | 280 | 4.3 | 0.0 | 0.00 | 0.00 | 0.00 | 73 | 1016.0 |
| 20260506080908 | 59 | 280 | 4.3 | 0.0 | 0.00 | 0.00 | 0.00 | 73 | 1016.0 |
| 20260506080544 | 63 | 260 | 3.5 | 0.0 | 0.00 | 0.00 | 0.00 | 73 | 1016.0 |
| 20260506080237 | 63 | 260 | 3.5 | 0.0 | 0.00 | 0.00 | 0.00 | 73 | 1016.0 |
| 20260506073450 | 63 | 260 | 3.5 | 0.0 | 0.00 | 0.00 | 0.00 | 73 | 1016.0 |
| 20260506073140 | 63 | 260 | 3.5 | 0.0 | 0.00 | 0.00 | 0.00 | 73 | 1016.0 |
| 20260506072828 | 67 | 260 | 3.5 | 0.0 | 0.00 | 0.00 | 0.00 | 73 | 1016.0 |
| 20260506072521 | 67 | 260 | 3.5 | 0.0 | 0.00 | 0.00 | 0.00 | 73 | 1016.0 |
| 20260506072211 | 62 | 323 | 5.2 | 3.5 | 0.00 | 0.00 | 0.00 | 81 | 1016.0 |
| 20260506071903 | 67 | 260 | 3.5 | 0.0 | 0.00 | 0.00 | 0.00 | 73 | 1016.0 |
| 20260506071556 | 62 | 323 | 5.2 | 3.5 | 0.00 | 0.00 | 0.00 | 81 | 1016.0 |
| 20260506070924 | 61 | 280 | 4.3 | 0.0 | 0.00 | 0.00 | 0.00 | 68 | 1016.0 |
| 20260506070618 | 61 | 280 | 4.3 | 0.0 | 0.00 | 0.00 | 0.00 | 68 | 1016.0 |
| 20260506070310 | 65 | 280 | 4.3 | 0.0 | 0.00 | 0.00 | 0.00 | 68 | 1016.0 |
| 20260506062256 | 59 | 280 | 4.3 | 0.0 | 0.00 | 0.00 | 0.00 | 64 | 1017.0 |
| 20260506061950 | 63 | 280 | 4.3 | 0.0 | 0.00 | 0.00 | 0.00 | 64 | 1017.0 |
| 20260506061643 | 67 | 280 | 4.3 | 0.0 | 0.00 | 0.00 | 0.00 | 64 | 1017.0 |
| 20260506061340 | 67 | 280 | 4.3 | 0.0 | 0.00 | 0.00 | 0.00 | 64 | 1017.0 |
| 20260506061023 | 67 | 280 | 4.3 | 0.0 | 0.00 | 0.00 | 0.00 | 64 | 1017.0 |
| 20260506060721 | 67 | 280 | 4.3 | 0.0 | 0.00 | 0.00 | 0.00 | 64 | 1017.0 |
| 20260506060417 | 71 | 270 | 4.3 | 0.0 | 0.00 | 0.00 | 0.00 | 64 | 1017.0 |
| 20260506060105 | 71 | 270 | 4.3 | 0.0 | 0.00 | 0.00 | 0.00 | 64 | 1017.0 |